Boone, IA

6:52 AM CDT on September 21, 2017 (GMT -0500)
Boone Municipal

Weather History for KBNW - March, 2013

Change the Weather History Date:

Friday, March 15, 2013

  Actual Average Record
Temperature  
Mean Temperature 38 °F -  
Max Temperature 46 °F 47 °F 75 °F (2012)
Min Temperature 31 °F 23 °F -3 °F (1975)
Degree Days  
Heating Degree Days 26    
Moisture  
Dew Point 34 °F    
Average Humidity 90    
Maximum Humidity 95    
Minimum Humidity 79    
Precipitation  
Precipitation 0.00 in - - ()
Sea Level Pressure  
Sea Level Pressure 29.85 in    
Wind  
Wind Speed 6 mph (East)    
Max Wind Speed 15 mph    
Max Gust Speed -    
Visibility 5 miles    
Events      
Averages and records for this station are not official NWS values.
T = Trace of Precipitation, MM = Missing Value Source: NWS Daily Summary

Daily Weather History Graph

Daily Weather History Graph

Search for Another Location

Airport or City:

Trip Planner

Search our weather history database for the weather conditions in past years. The results will help you decide how hot, cold, wet, or windy it might be!

Date:

Astronomy

Mar. 15, 2013 Rise Set
Actual Time 7:26 AM CDT 7:22 PM CDT
Civil Twilight 6:58 AM CDT 7:50 PM CDT
Nautical Twilight 6:26 AM CDT 8:22 PM CDT
Astronomical Twilight 5:53 AM CDT 8:55 PM CDT
Moon 9:13 AM CDT (3/15) 11:41 PM CDT (3/15)
Length of Visible Light 12h 51m
Length of Day
11h 55m
Waxing Crescent, 15% of the Moon is Illuminated
Mar 15
Waxing Crescent
Mar 19
First Quarter
Mar 27
Full
Apr 2
Last Quarter
Apr 10
New

Hourly Weather History & Observations

Time (CDT) Temp. Windchill Dew Point Humidity Pressure Visibility Wind Dir Wind Speed Gust Speed Precip Events Conditions
12:15 AM 31.1 °F 25.4 °F 28.4 °F 90% 30.06 in 7.0 mi SW 5.8 mph - N/A   Clear
12:35 AM 31.1 °F 25.4 °F 28.4 °F 90% 30.06 in 7.0 mi SW 5.8 mph - N/A   Clear
12:55 AM 31.1 °F 24.5 °F 28.8 °F 91% 30.04 in 7.0 mi SSW 6.9 mph - N/A   Clear
1:15 AM 31.6 °F 26.0 °F 28.9 °F 90% 30.03 in 7.0 mi SSW 5.8 mph - N/A   Clear
1:35 AM 32.0 °F 26.4 °F 29.1 °F 89% 30.02 in 7.0 mi SW 5.8 mph - N/A   Clear
1:55 AM 31.1 °F 26.4 °F 28.9 °F 92% 30.02 in 7.0 mi SW 4.6 mph - N/A   Clear
2:15 AM 31.1 °F 25.4 °F 28.9 °F 92% 30.02 in 7.0 mi SW 5.8 mph - N/A   Clear
2:35 AM 32.0 °F 25.6 °F 29.3 °F 90% 30.01 in 7.0 mi SSW 6.9 mph - N/A   Clear
2:55 AM 32.0 °F 26.4 °F 29.5 °F 90% 29.99 in 7.0 mi SSW 5.8 mph - N/A   Clear
3:15 AM 32.0 °F 27.5 °F 29.7 °F 91% 29.98 in 7.0 mi SSW 4.6 mph - N/A   Clear
3:35 AM 32.2 °F 27.7 °F 29.7 °F 90% 29.98 in 7.0 mi SW 4.6 mph - N/A   Clear
3:55 AM 32.0 °F 26.4 °F 29.8 °F 92% 29.96 in 7.0 mi SW 5.8 mph - N/A   Clear
4:15 AM 32.2 °F 25.0 °F 30.2 °F 92% 29.96 in 7.0 mi SW 8.1 mph - N/A   Clear
4:35 AM 32.5 °F 25.5 °F 30.6 °F 92% 29.95 in 7.0 mi SW 8.1 mph - N/A   Clear
4:55 AM 33.1 °F 26.9 °F 31.1 °F 92% 29.94 in 7.0 mi SW 6.9 mph - N/A   Clear
5:15 AM 33.3 °F 27.1 °F 31.3 °F 92% 29.94 in 7.0 mi WSW 6.9 mph - N/A   Clear
5:35 AM 33.8 °F 27.7 °F 31.8 °F 92% 29.94 in 7.0 mi WSW 6.9 mph - N/A   Clear
5:55 AM 34.7 °F 30.6 °F 32.0 °F 90% 29.94 in 7.0 mi West 4.6 mph - N/A   Clear
6:15 AM 34.7 °F 31.8 °F 32.0 °F 90% 29.94 in 7.0 mi WNW 3.5 mph - N/A   Scattered Clouds
6:35 AM 33.6 °F 28.4 °F 31.5 °F 92% 29.94 in 7.0 mi NNE 5.8 mph - N/A   Scattered Clouds
6:55 AM 32.9 °F 28.5 °F 31.3 °F 94% 29.93 in 5.0 mi NE 4.6 mph - N/A   Scattered Clouds
7:15 AM 32.7 °F 28.3 °F 31.1 °F 94% 29.92 in 4.0 mi East 4.6 mph - N/A   Scattered Clouds
7:35 AM 32.4 °F 29.1 °F 31.1 °F 95% 29.91 in 3.0 mi ENE 3.5 mph - N/A   Scattered Clouds
7:55 AM 32.7 °F 29.6 °F 31.1 °F 94% 29.92 in 3.0 mi ENE 3.5 mph - N/A   Clear
8:15 AM 32.5 °F 27.1 °F 30.9 °F 94% 29.91 in 3.0 mi East 5.8 mph - N/A   Scattered Clouds
8:35 AM 32.9 °F 27.5 °F 31.1 °F 93% 29.90 in 3.0 mi East 5.8 mph - N/A   Mostly Cloudy
8:55 AM 32.9 °F 27.5 °F 31.1 °F 93% 29.89 in 3.0 mi SE 5.8 mph - N/A   Mostly Cloudy
9:15 AM 32.9 °F 27.5 °F 31.5 °F 94% 29.88 in 2.5 mi ESE 5.8 mph - N/A   Mostly Cloudy
9:35 AM 33.1 °F 26.9 °F 31.6 °F 94% 29.87 in 2.5 mi SE 6.9 mph - N/A   Mostly Cloudy
10:55 AM 35.2 °F 29.5 °F 32.7 °F 91% 29.83 in 3.0 mi SE 6.9 mph - N/A   Clear
11:15 AM 36.9 °F 31.4 °F 34.0 °F 89% 29.82 in 3.0 mi ESE 6.9 mph - N/A   Clear
11:35 AM 37.9 °F 33.5 °F 34.7 °F 88% 29.83 in 4.0 mi East 5.8 mph - N/A   Clear
11:55 AM 38.5 °F 33.4 °F 34.9 °F 87% 29.82 in 4.0 mi East 6.9 mph - N/A   Clear
12:15 PM 39.2 °F 33.6 °F 35.6 °F 87% 29.81 in 5.0 mi East 8.1 mph - N/A   Clear
12:35 PM 39.6 °F 33.0 °F 36.0 °F 87% 29.79 in 4.0 mi East 10.4 mph - N/A   Clear
12:55 PM 40.6 °F 36.0 °F 36.7 °F 86% 29.79 in 4.0 mi East 6.9 mph - N/A   Clear
1:15 PM 41.4 °F 37.6 °F 37.4 °F 86% 29.79 in 4.0 mi East 5.8 mph - N/A   Clear
1:35 PM 42.8 °F 38.6 °F 37.6 °F 82% 29.79 in 5.0 mi East 6.9 mph - N/A   Haze
1:55 PM 42.3 °F 37.9 °F 37.4 °F 83% 29.79 in 7.0 mi ESE 6.9 mph - N/A   Clear
2:15 PM 43.0 °F 38.8 °F 37.4 °F 81% 29.77 in 7.0 mi East 6.9 mph - N/A   Clear
2:35 PM 43.2 °F 38.4 °F 37.8 °F 81% 29.75 in 10.0 mi ESE 8.1 mph - N/A   Clear
2:55 PM 43.5 °F 40.1 °F 38.3 °F 82% 29.74 in 10.0 mi ESE 5.8 mph - N/A   Clear
3:15 PM 44.8 °F 42.4 °F 39.2 °F 81% 29.74 in 7.0 mi East 4.6 mph - N/A   Clear
3:35 PM 45.3 °F 43.0 °F 39.0 °F 79% 29.75 in 7.0 mi ENE 4.6 mph - N/A   Clear
3:55 PM 46.0 °F 44.8 °F 39.7 °F 79% 29.75 in 10.0 mi ENE 3.5 mph - N/A   Clear
4:15 PM 45.1 °F 42.8 °F 40.5 °F 84% 29.75 in 7.0 mi NE 4.6 mph - N/A   Clear
4:35 PM 45.0 °F 41.2 °F 40.1 °F 83% 29.75 in 7.0 mi NE 6.9 mph - N/A   Clear
4:55 PM 44.1 °F 40.1 °F 39.6 °F 84% 29.76 in 7.0 mi NNE 6.9 mph - N/A   Clear
5:15 PM 43.5 °F 38.9 °F 39.6 °F 86% 29.75 in 7.0 mi NE 8.1 mph - N/A   Clear
5:35 PM 43.0 °F 39.5 °F 39.0 °F 86% 29.75 in 7.0 mi NE 5.8 mph - N/A   Clear
5:55 PM 43.0 °F 37.2 °F 39.2 °F 86% 29.74 in 7.0 mi NE 10.4 mph - N/A   Clear
6:15 PM 41.0 °F 35.2 °F 37.9 °F 89% 29.74 in 4.0 mi NE 9.2 mph - N/A   Clear
6:35 PM 39.7 °F 34.3 °F 37.0 °F 90% 29.74 in 4.0 mi ENE 8.1 mph - N/A   Clear
6:55 PM 38.8 °F 32.6 °F 36.5 °F 91% 29.74 in 4.0 mi NE 9.2 mph - N/A   Clear
7:15 PM 38.3 °F 33.2 °F 35.8 °F 91% 29.74 in 3.0 mi ENE 6.9 mph - N/A   Clear
7:35 PM 37.4 °F 32.8 °F 35.2 °F 92% 29.74 in 3.0 mi ENE 5.8 mph - N/A   Clear
7:55 PM 36.7 °F 31.2 °F 34.7 °F 93% 29.74 in 4.0 mi ENE 6.9 mph - N/A   Clear
8:15 PM 36.1 °F 31.4 °F 34.0 °F 92% 29.74 in 4.0 mi ENE 5.8 mph - N/A   Clear
8:35 PM 35.4 °F 31.5 °F 33.1 °F 91% 29.74 in 4.0 mi ENE 4.6 mph - N/A   Clear
8:55 PM 35.2 °F 32.4 °F 33.1 °F 92% 29.75 in 4.0 mi NE 3.5 mph - N/A   Clear
9:15 PM 34.5 °F 28.6 °F 32.7 °F 93% 29.78 in 4.0 mi NNW 6.9 mph - N/A   Clear
9:35 PM 34.0 °F 29.8 °F 32.4 °F 94% 29.78 in 3.0 mi NNW 4.6 mph - N/A   Clear
9:55 PM 33.8 °F 28.6 °F 32.0 °F 93% 29.79 in 3.0 mi NNW 5.8 mph - N/A   Clear
10:15 PM 34.0 °F 26.6 °F 32.4 °F 94% 29.80 in 3.0 mi NNW 9.2 mph - N/A   Scattered Clouds
10:35 PM 34.0 °F 25.5 °F 32.4 °F 94% 29.81 in 3.0 mi NNW 11.5 mph - N/A   Scattered Clouds
10:55 PM 34.2 °F 26.8 °F 32.4 °F 93% 29.81 in 3.0 mi NNW 9.2 mph - N/A   Mist
11:15 PM 34.0 °F 24.2 °F 32.2 °F 93% 29.82 in 3.0 mi NNW 15.0 mph - N/A   Overcast
11:35 PM 33.8 °F 25.3 °F 32.0 °F 93% 29.81 in 4.0 mi NNW 11.5 mph - N/A   Overcast
11:55 PM 33.8 °F 26.4 °F 32.0 °F 93% 29.80 in 4.0 mi North 9.2 mph - N/A   Overcast